Location: Ariel
(45.9570°N, 122.5700°W)
Time: 02:46:55
(UTC-07:00)

Tiros 1 - Pass Details

Date: 21 July 2019
Orbit: 631 x 664 km, 48.4° (Epoch: 25 August)

Event Time Altitude Azimuth Distance (km) Brightness Sun altitude
Rises 15:24:33 0° 267° (W) 2,993 11.0 53.4°
Reaches altitude 10° 15:26:55 10° 270° (W) 2,082 10.4 53.1°
Maximum altitude 15:31:43 67° 354° (N) 719 8.1 52.4°
Drops below altitude 10° 15:36:30 10° 77° (ENE) 2,079 9.5 51.7°
Sets 15:38:52 0° 80° (E) 2,989 10.2 51.3°
